Japanese version Home page |
Updated on August 11, 2020 |
|
Orbital ElementsEpoch 2013 Dec. 14.0 TT = JDT 2456640.5 T 2013 Nov. 24.58846 TT Rudenko q 3.1594206 (2000.0) P Q n 0.12382595 Peri. 149.76534 +0.31254414 +0.94567213 a 3.9865290 Node 138.26357 -0.89624608 +0.32481414 e 0.2074758 Incl. 7.73138 -0.31473660 +0.01414159 P 7.96 From 241 observations 2005 May 16-Sept. 15, mean residual 0".5.
|
Finding Charts
|
Magnitudes Graphm1 = 14.0 + 5 log d + 10.0 log r * Gray curve is: m1 = 10.0 + 5 log d + 10.0 log r
|
The orbital elements are published on M.P.E.C. 2020-P19.
|